Weather History for Zanesville, OH

Change the Weather History Date:

Monday, September 24, 2012

  Actual Average Record
Temperature  
Mean Temperature 49 °F 61 °F  
Max Temperature 63 °F 73 °F 92 °F (1961)
Min Temperature 34 °F 50 °F 32 °F (1950)
Degree Days  
Heating Degree Days 16 5  
Month to date heating degree days 97 59  
Since 1 July heating degree days 97 70  
Cooling Degree Days 0 1  
Month to date cooling degree days 84 73  
Year to date cooling degree days 974 750  
Moisture  
Dew Point 37 °F    
Average Humidity 68    
Maximum Humidity 100    
Minimum Humidity 36    
Precipitation  
Precipitation 0.00 in 0.10 in 0.94 in (1975)
Month to date precipitation 4.31 2.40  
Year to date precipitation 25.64 28.92  
Sea Level Pressure  
Sea Level Pressure 30.21 in    
Wind  
Wind Speed 4 mph (SSW)    
Max Wind Speed 13 mph    
Max Gust Speed 18 mph    
Visibility 8 miles    
Events Fog    
T = Trace of Precipitation, MM = Missing Value Source: NWS Daily Summary

Daily Weather History Graph

Daily Weather History Graph

Search for Another Location

Airport:

Trip Planner

Search our weather history database for the weather conditions in past years. The results will help you decide how hot, cold, wet, or windy it might be!

Date:

Astronomy

Sep. 24, 2012 Rise Set
Actual Time 7:17 AM EDT 7:20 PM EDT
Civil Twilight 6:50 AM EDT 7:47 PM EDT
Nautical Twilight 6:18 AM EDT 8:18 PM EDT
Astronomical Twilight 5:46 AM EDT 8:50 PM EDT
Moon 4:05 PM EDT (9/24) 1:32 AM EDT (9/24)
Length of Visible Light 12h 56m
Length of Day
12h 03m
Waxing Gibbous, 70% of the Moon is Illuminated
Sep 24
Waxing Gibbous
Sep 29
Full
Oct 8
Last Quarter
Oct 15
New
Oct 21
First Quarter

Hourly Weather History & Observations

Time (EDT) Temp. Dew Point Humidity Pressure Visibility Wind Dir Wind Speed Gust Speed Precip Events Conditions
12:53 AM 46.9 °F 41.0 °F 80% 30.23 in 10.0 mi Calm Calm - N/A   Scattered Clouds
1:53 AM 43.0 °F 39.9 °F 89% 30.23 in 10.0 mi Calm Calm - N/A   Clear
2:53 AM 41.0 °F 39.0 °F 93% 30.23 in 10.0 mi Calm Calm - N/A   Clear
3:53 AM 39.0 °F 37.9 °F 96% 30.24 in 10.0 mi Calm Calm - N/A   Clear
4:53 AM 37.9 °F 37.0 °F 97% 30.24 in 5.0 mi Calm Calm - N/A   Partly Cloudy
5:53 AM 37.9 °F 36.0 °F 93% 30.26 in 10.0 mi Calm Calm - N/A   Clear
6:53 AM 35.1 °F 33.1 °F 92% 30.27 in 10.0 mi Calm Calm - N/A   Clear
7:10 AM 35.6 °F 33.8 °F 93% 30.27 in 1.5 mi Calm Calm - N/A   Partly Cloudy
7:12 AM 35.6 °F 33.8 °F 93% 30.27 in 1.0 mi Calm Calm - N/A   Mist
7:19 AM 35.6 °F 33.8 °F 93% 30.27 in 0.2 mi Calm Calm - N/A Fog Fog
7:34 AM 35.6 °F 33.8 °F 93% 30.27 in 1.2 mi Calm Calm - N/A   Scattered Clouds
7:36 AM 35.6 °F 33.8 °F 93% 30.27 in 2.0 mi Calm Calm - N/A   Scattered Clouds
7:44 AM 35.6 °F 33.8 °F 93% 30.27 in 6.0 mi Calm Calm - N/A   Partly Cloudy
7:53 AM 35.1 °F 35.1 °F 100% 30.29 in 10.0 mi Calm Calm - N/A   Clear
8:53 AM 42.1 °F 39.9 °F 92% 30.29 in 10.0 mi Calm Calm - N/A   Clear
9:53 AM 50.0 °F 42.1 °F 74% 30.29 in 10.0 mi West 3.5 mph - N/A   Clear
10:53 AM 53.1 °F 39.9 °F 61% 30.29 in 10.0 mi Calm Calm - N/A   Clear
11:53 AM 55.9 °F 37.0 °F 49% 30.27 in 10.0 mi Variable 4.6 mph - N/A   Clear
12:53 PM 57.9 °F 36.0 °F 44% 30.25 in 10.0 mi Variable 6.9 mph - N/A   Clear
1:53 PM 60.1 °F 36.0 °F 41% 30.22 in 10.0 mi West 9.2 mph - N/A   Clear
2:53 PM 62.1 °F 37.0 °F 39% 30.19 in 10.0 mi Variable 6.9 mph - N/A   Clear
3:53 PM 63.0 °F 37.9 °F 40% 30.15 in 10.0 mi SSW 11.5 mph - N/A   Clear
4:53 PM 63.0 °F 36.0 °F 37% 30.12 in 10.0 mi SW 9.2 mph - N/A   Clear
5:53 PM 62.1 °F 36.0 °F 38% 30.11 in 10.0 mi SSW 6.9 mph - N/A   Clear
6:53 PM 59.0 °F 37.9 °F 46% 30.10 in 10.0 mi South 5.8 mph - N/A   Clear
7:53 PM 55.0 °F 39.0 °F 55% 30.10 in 10.0 mi South 4.6 mph - N/A   Clear
8:53 PM 53.1 °F 39.0 °F 59% 30.09 in 10.0 mi South 4.6 mph - N/A   Clear
9:53 PM 50.0 °F 39.0 °F 66% 30.09 in 10.0 mi South 3.5 mph - N/A   Clear
10:53 PM 46.9 °F 39.9 °F 77% 30.10 in 10.0 mi Calm Calm - N/A   Clear
11:53 PM 46.9 °F 39.9 °F 77% 30.10 in 10.0 mi South 3.5 mph - N/A   Clear